Temp
-16 -16 -15 -14 -13 -14 -13 -14 -13 -13 -14 -14 -13 -13 -12 -13 -13 -13 -13 -13 -13 -13 -13 -13 -13 -13 -12
-16 -16 -15 -14 -14 -14 -14 -13 -14 -14 -14 -15 -14 -13 -13 -13 -13 -13 -13 -13 -13 -13 -13 -13 -13 -13 -13
-16 -16 -15 -15 -15 -15 -14 -14 -14 -14 -14 -14 -14 -14 -13 -13 -13 -13 -13 -13 -13 -13 -13 -13 -13 -13 -13
-16 -17 -16 -15 -15 -15 -14 -14 -15 -14 -14 -13 -14 -14 -14 -14 -14 -13 -13 -13 -13 -13 -14 -13 -13 -13 -14
-17 -17 -17 -16 -15 -15 -15 -15 -16 -14 -15 -14 -14 -14 -15 -14 -14 -14 -13 -14 -14 -14 -14 -14 -14 -14 -14
-20 -18 -18 -17 -16 -15 -15 -15 -16 -15 -14 -15 -15 -15 -14 -15 -15 -15 -14 -14 -14 -14 -14 -14 -14 -15 -14
-22 -19 -19 -18 -17 -16 -16 -17 -15 -15 -15 -14 -15 -15 -15 -15 -15 -16 -15 -15 -16 -15 -15 -15 -14 -15 -14
-24 -21 -20 -20 -18 -18 -17 -17 -16 -15 -14 -14 -15 -15 -15 -15 -15 -15 -15 -16 -15 -15 -15 -15 -15 -15 -15
-26 -24 -21 -21 -20 -19 -18 -17 -16 -15 -17 -16 -15 -16 -15 -15 -15 -15 -15 -16 -16 -16 -15 -15 -15 -15 -15
-27 -26 -24 -22 -21 -19 -19 -18 -17 -16 -17 -16 -16 -16 -16 -15 -14 -15 -15 -15 -16 -16 -16 -15 -15 -15 -15
-29 -27 -26 -24 -22 -21 -19 -19 -17 -16 -18 -17 -16 -17 -16 -15 -15 -15 -15 -15 -15 -15 -15 -15 -15 -15 -14
-30 -28 -27 -25 -23 -22 -21 -20 -18 -16 -18 -19 -18 -17 -17 -16 -15 -15 -15 -15 -15 -15 -15 -14 -14 -14 -14
-30 -29 -28 -26 -25 -24 -23 -21 -19 -18 -18 -19 -17 -17 -17 -17 -17 -16 -15 -15 -15 -15 -15 -14 -14 -14 -15
-31 -30 -29 -28 -26 -25 -24 -22 -20 -19 -18 -19 -18 -17 -17 -16 -16 -16 -16 -16 -15 -15 -15 -14 -15 -15 -15
-31 -30 -29 -29 -27 -25 -24 -24 -22 -19 -19 -19 -19 -17 -17 -17 -15 -15 -15 -15 -16 -15 -15 -15 -15 -15 -15
-30 -30 -29 -29 -28 -26 -25 -25 -23 -21 -19 -19 -19 -17 -18 -17 -16 -16 -15 -16 -16 -15 -15 -15 -16 -16 -15
-29 -30 -29 -29 -29 -27 -25 -25 -24 -22 -20 -20 -20 -19 -19 -18 -17 -17 -15 -17 -16 -15 -16 -15 -16 -16 -16
Height
5625 5633 5644 5653 5659 5664 5671 5677 5682 5686 5692 5702 5709 5714 5720 5725 5729 5734 5739 5742 5746 5750 5754 5756 5759 5761 5762
5599 5609 5621 5631 5640 5646 5653 5661 5665 5670 5676 5684 5693 5700 5705 5711 5716 5720 5726 5731 5735 5739 5742 5745 5748 5750 5752
5570 5583 5597 5608 5618 5627 5635 5644 5648 5654 5660 5667 5676 5683 5689 5696 5702 5708 5713 5719 5723 5726 5730 5733 5736 5740 5741
5533 5553 5568 5584 5594 5608 5616 5625 5632 5637 5645 5650 5655 5665 5673 5680 5687 5692 5699 5704 5710 5715 5717 5721 5724 5728 5730
5499 5519 5542 5556 5568 5582 5591 5603 5612 5621 5627 5631 5639 5645 5654 5664 5671 5677 5685 5691 5696 5702 5705 5708 5711 5715 5718
5465 5484 5510 5528 5539 5552 5564 5577 5591 5605 5609 5616 5621 5626 5635 5644 5654 5661 5670 5677 5683 5688 5692 5695 5698 5702 5705
5429 5451 5474 5497 5513 5524 5537 5551 5568 5579 5584 5595 5602 5610 5618 5627 5636 5644 5652 5659 5666 5673 5678 5681 5684 5687 5691
5397 5425 5439 5461 5477 5494 5508 5523 5542 5555 5566 5575 5586 5594 5601 5609 5617 5624 5632 5642 5650 5656 5662 5666 5671 5673 5677
5366 5387 5406 5425 5444 5460 5478 5495 5519 5536 5544 5555 5565 5576 5584 5592 5599 5607 5615 5624 5632 5639 5646 5651 5657 5660 5662
5333 5354 5372 5390 5411 5428 5451 5469 5494 5508 5531 5538 5547 5557 5563 5578 5583 5591 5598 5606 5614 5621 5628 5636 5640 5642 5647
5306 5323 5341 5358 5380 5401 5422 5442 5463 5485 5514 5516 5527 5535 5545 5563 5569 5576 5583 5590 5597 5605 5611 5618 5622 5627 5632
5279 5294 5312 5331 5354 5375 5393 5414 5433 5464 5484 5488 5504 5517 5528 5537 5550 5560 5567 5574 5581 5588 5595 5601 5606 5612 5616
5257 5272 5289 5309 5326 5338 5357 5381 5402 5430 5449 5464 5483 5495 5503 5518 5529 5543 5548 5558 5565 5573 5577 5584 5590 5597 5602
5234 5248 5261 5274 5289 5309 5328 5351 5371 5399 5421 5439 5457 5472 5482 5493 5508 5523 5534 5543 5551 5557 5562 5566 5571 5578 5586
5210 5222 5233 5245 5259 5281 5300 5320 5338 5370 5394 5417 5433 5448 5463 5474 5486 5503 5514 5528 5535 5541 5545 5551 5557 5564 5570
5191 5199 5210 5222 5237 5253 5272 5288 5311 5339 5366 5391 5410 5422 5436 5452 5469 5482 5496 5508 5519 5527 5529 5535 5542 5550 5557
5169 5176 5184 5194 5206 5223 5242 5262 5285 5312 5337 5362 5379 5396 5412 5429 5451 5464 5481 5493 5503 5510 5515 5520 5528 5535 5541
Wind_Speed
98 92 82 71 67 66 69 64 65 65 82 66 66 63 60 55 53 51 50 49 47 45 43 42 41 38 36
102 100 93 82 74 68 64 62 54 56 69 69 66 66 63 58 56 54 53 52 49 47 45 45 43 39 39
107 105 101 98 86 79 74 68 59 61 60 72 76 68 66 61 60 58 56 54 52 50 48 47 44 41 40
118 108 106 102 100 92 84 71 57 62 65 68 76 80 68 64 62 60 59 57 55 52 50 50 46 44 42
120 114 107 106 103 100 95 82 71 63 70 67 73 80 78 82 68 60 62 60 56 54 53 52 47 45 45
116 120 111 107 107 105 102 100 85 76 75 71 70 69 77 78 76 70 66 60 56 56 55 53 50 47 47
115 119 115 109 109 109 105 93 86 83 82 68 62 62 63 67 72 70 69 65 63 61 60 57 55 52 50
116 115 118 112 112 111 109 99 92 91 86 82 66 66 60 61 64 73 77 65 65 64 63 61 57 54 56
114 115 118 116 113 114 112 106 97 97 89 92 82 79 74 64 63 66 70 70 70 71 68 64 62 61 59
105 116 118 120 116 117 113 109 102 102 82 76 86 82 74 62 64 62 68 73 73 72 69 70 69 67 62
95 105 117 120 118 117 116 112 110 105 91 91 81 73 77 67 54 61 59 65 68 70 70 69 69 68 57
91 97 108 119 118 116 116 114 112 108 98 96 87 80 77 77 80 57 56 62 68 64 62 65 65 59 53
88 91 97 110 118 118 117 116 114 111 109 91 89 82 79 78 80 77 65 55 65 61 52 54 57 57 53
80 89 92 98 117 120 118 117 117 114 111 93 95 92 89 93 75 78 78 73 57 57 56 54 50 48 41
71 84 92 97 105 121 120 118 119 117 113 100 96 96 93 81 83 80 79 72 61 54 58 59 55 44 39
59 69 85 94 99 111 122 120 119 118 116 109 104 103 98 92 86 79 81 74 72 63 62 62 45 40 40
54 59 68 87 96 102 118 123 120 119 117 112 107 103 95 91 85 81 83 74 64 56 52 54 46 46 40
Wind_Direction
237 238 239 236 235 243 247 247 244 247 241 242 246 245 244 242 243 243 242 242 241 243 245 247 252 256 262
234 235 235 233 234 235 238 240 240 248 242 240 245 245 243 243 242 241 242 242 241 242 243 246 250 255 260
235 233 233 234 234 236 231 232 237 243 249 246 240 243 243 242 243 243 242 243 242 242 242 244 249 254 257
238 232 232 232 233 234 236 231 236 243 246 251 247 239 241 242 241 241 243 242 242 241 240 244 248 251 254
237 235 230 230 233 233 231 232 237 232 243 245 246 242 241 242 241 241 244 241 241 241 241 244 246 249 253
231 234 230 228 231 232 233 233 234 232 238 240 241 241 242 241 236 240 241 240 240 241 241 243 246 248 251
227 230 229 227 228 231 232 232 230 231 231 232 237 237 238 243 241 234 234 237 238 238 238 240 242 245 253
226 225 227 224 225 228 231 230 227 229 231 227 229 235 244 244 241 241 237 230 234 236 241 241 242 251 252
227 223 223 224 224 224 228 228 226 227 230 226 232 241 243 245 241 237 236 234 232 236 240 240 246 250 249
230 224 221 222 221 223 224 227 224 227 225 225 241 236 241 236 238 235 238 239 236 238 241 241 250 248 251
231 228 222 221 221 221 222 224 223 223 223 223 224 236 239 234 233 238 235 242 242 241 247 246 249 251 245
232 229 226 221 220 220 221 221 223 221 223 224 226 229 235 238 234 237 236 234 235 237 241 243 245 242 243
233 231 227 224 220 219 219 220 221 219 222 221 219 222 233 238 238 235 234 242 231 237 237 236 237 242 241
237 230 228 224 222 219 219 218 219 219 221 219 219 217 220 225 230 233 240 248 236 239 237 236 219 223 230
242 234 228 226 222 220 219 217 217 217 218 215 217 220 218 219 223 228 236 233 236 238 227 226 225 233 243
250 242 233 229 226 222 219 218 216 215 217 216 214 219 225 226 225 226 232 236 240 236 225 226 234 238 243
251 243 236 230 227 223 221 219 216 213 215 216 215 217 221 224 222 224 225 230 226 229 232 232 237 244 249